Weather observations for the past three days for
Alma, Gratiot Community Airport
Metric (Imperial)
Date Time (edt) Wind (kph) Vis. (km) Weather Sky Cond. Temperature (ºC) Relative Humidity Wind Chill (°C) Heat Index (°C) Pressure Precipitation (cm)
Air Dwpt 6 hour altimeter (cm) sea level (mb) 1 hr 3 hr 6 hr
Max. Min.
04 03:15 SW 17 16.09 Fair CLR 9 5 76% 7 75.29 0.0
04 02:55 SW 17 16.09 Fair CLR 9 5 76% 7 75.29 0.0
04 02:35 SW 19 16.09 Fair CLR 9 5 76% 7 75.31 0.0
04 02:15 S 17 16.09 Fair CLR 9 5 76% 7 75.34 0.0
04 01:56 SW 19 16.09 Fair CLR 9 5 76% 7 75.34 0.0
04 01:35 SW 19 16.09 Fair CLR 9 5 76% 7 75.36 0.0
04 01:15 SW 17 16.09 Fair CLR 10 5 71% 8 75.39 0.0
04 00:55 SW 17 16.09 Fair CLR 9 5 76% 7 75.41 0.0
04 00:35 SW 22 16.09 Fair CLR 9 5 76% 6 75.41 0.0
04 00:15 SW 17 16.09 Fair CLR 10 5 71% 8 75.41 0.0
03 23:55 S 20 16.09 Fair CLR 10 5 71% 8 75.41 0.0
03 23:36 S 22 G 31 16.09 Fair CLR 10 4 67% 7 75.44 0.0
03 23:15 S 20 G 30 16.09 Fair CLR 10 4 67% 8 75.44 0.0
03 22:55 SW 22 16.09 Fair CLR 10 4 67% 7 75.46 0.0
03 22:35 SW 20 16.09 Fair CLR 10 4 67% 8 75.46 0.0
03 22:15 SW 19 16.09 Fair CLR 10 4 67% 8 75.49 0.0
03 21:55 S 20 16.09 Fair CLR 10 4 67% 8 75.49 0.0
03 21:35 SW 19 16.09 A Few Clouds FEW065 11 4 62% 75.49 0.0
03 21:16 SW 20 16.09 Mostly Cloudy BKN065 11 4 62% 75.49 0.0
03 20:55 SW 19 G 30 16.09 Overcast OVC065 11 4 62% 75.49 0.0
03 20:35 SW 20 16.09 Mostly Cloudy BKN065 11 4 62% 75.49 0.0
03 20:15 SW 28 16.09 Fair CLR 12 4 58% 75.49 0.0
03 19:55 SW 26 G 43 16.09 Fair CLR 13 4 17.2 12.6 55% 75.49 0.0
03 19:35 SW 28 G 35 16.09 Fair CLR 13 4 55% 75.49 0.0
03 19:15 SW 24 G 41 16.09 Fair CLR 14 4 51% 75.51 0.0
03 18:56 SW 28 G 41 16.09 Fair CLR 14 5 55% 75.54 0.0
03 18:35 SW 37 G 46 16.09 A Few Clouds and Breezy FEW090 14 4 51% 75.54 0.0
03 18:15 SW 26 G 39 16.09 Overcast OVC090 15 4 48% 75.57 0.0
03 17:55 SW 35 G 48 16.09 Overcast and Breezy OVC080 14 4 51% 75.57 0.0
03 17:35 SW 30 G 41 16.09 Overcast SCT060 OVC080 13 3 51% 75.59 0.0
03 17:15 SW 24 G 41 16.09 Overcast BKN060 OVC070 13 3 51% 75.59 0.0
03 16:55 W 41 G 54 16.09 Overcast and Breezy BKN060 BKN075 OVC085 14 3 48% 75.62 0.0
03 16:36 W 39 G 56 16.09 Mostly Cloudy and Breezy FEW060 BKN080 16 4 45% 75.59 0.0
03 16:15 SW 39 G 61 16.09 Partly Cloudy and Breezy FEW060 SCT090 17 3 39% 75.57 0.0
03 15:55 SW 31 G 56 16.09 A Few Clouds FEW060 17 3 39% 75.59 0.0
03 15:35 SW 31 G 57 16.09 A Few Clouds FEW055 17 3 39% 75.59 0.0
03 15:15 W 35 G 50 16.09 Partly Cloudy and Breezy SCT055 17 3 39% 75.62 0.0
03 14:55 SW 31 G 46 16.09 Partly Cloudy SCT055 17 4 42% 75.64 0.0
03 14:35 SW 31 G 50 16.09 Mostly Cloudy SCT055 BKN070 17 4 42% 75.64 0.0
03 14:16 W 30 G 46 16.09 Overcast BKN055 OVC070 16 4 45% 75.67 0.0
03 13:55 W 35 G 54 16.09 Mostly Cloudy and Breezy BKN055 BKN070 16 4 16.6 6.7 45% 75.67 0.0
03 13:35 W 37 G 44 16.09 A Few Clouds and Breezy FEW055 16 4 45% 75.69 0.0
03 13:15 W 28 G 43 16.09 Fair CLR 16 4 45% 75.72 0.0
03 12:55 SW 33 G 44 16.09 Fair and Breezy CLR 15 3 45% 75.72 0.0
03 12:35 SW 31 G 43 16.09 A Few Clouds FEW120 15 2 42% 75.74 0.0
03 12:15 SW 26 G 37 16.09 Mostly Cloudy SCT085 BKN120 14 2 44% 75.77 0.0
03 11:56 W 22 G 41 16.09 Mostly Cloudy BKN085 BKN100 15 2 42% 75.79 0.0
03 11:35 W 24 G 39 16.09 A Few Clouds FEW095 FEW120 14 2 44% 75.79 0.0
03 11:15 W 22 G 30 16.09 Fair CLR 14 1 41% 75.79 0.0
03 10:55 SW 30 G 39 16.09 Partly Cloudy SCT080 13 1 44% 75.82 0.0
03 10:35 SW 24 G 35 16.09 Mostly Cloudy BKN080 BKN110 13 2 47% 75.82 0.0
03 10:15 SW 20 16.09 Mostly Cloudy BKN090 BKN110 11 1 50% 75.84 0.0
03 09:55 SW 17 G 26 16.09 Overcast OVC090 10 1 54% 8 75.84 0.0
03 09:36 SW 13 16.09 Overcast OVC080 9 1 58% 7 75.84 0.0
03 09:15 SW 20 16.09 Overcast BKN080 OVC110 9 0 54% 6 75.84 0.0
03 08:55 SW 19 16.09 Mostly Cloudy BKN100 BKN120 9 0 54% 7 75.84 0.0
03 08:35 SW 22 16.09 A Few Clouds FEW120 8 0 57% 5 75.87 0.0
03 08:15 SW 20 G 33 16.09 Fair CLR 7 0 61% 4 75.87 0.0
03 07:55 SW 17 16.09 Fair CLR 7 0 6.7 2.1 61% 4 75.87 0.0
03 07:35 SW 19 G 30 16.09 Fair CLR 6 -1 61% 3 75.87 0.0
03 07:16 SW 17 16.09 Fair CLR 5 -1 66% 2 75.84 0.0
03 06:55 SW 17 16.09 Fair CLR 5 -2 61% 2 75.87 0.0
03 06:35 SW 15 16.09 Fair CLR 4 -2 65% 1 75.87 0.0
03 06:15 SW 13 16.09 Fair CLR 4 -3 61% 1 75.87 0.0
03 05:55 SW 13 16.09 Fair CLR 4 -3 61% 1 75.87 0.0
03 05:35 SW 13 16.09 Fair CLR 4 -3 61% 1 75.9 0.0
03 05:15 SW 13 16.09 Fair CLR 4 -3 61% 1 75.92 0.0
03 04:56 SW 17 16.09 Fair CLR 4 -3 61% 1 75.92 0.0
03 04:35 SW 13 16.09 Fair CLR 4 -3 61% 1 75.95 0.0
03 04:15 SW 13 16.09 Fair CLR 3 -3 65% 0 75.95 0.0
03 03:55 S 13 16.09 Fair CLR 3 -4 60% 0 75.95 0.0
03 03:35 S 13 16.09 Fair CLR 3 -4 60% 0 75.97 0.0
03 03:15 SW 11 16.09 Fair CLR 2 -4 65% -1 75.97 0.0
03 02:55 SW 11 16.09 Fair CLR 3 -4 60% 0 76 0.0
03 02:36 SW 11 16.09 Partly Cloudy SCT095 3 -4 60% 0 76.02 0.0
03 02:15 SW 9 16.09 Mostly Cloudy BKN095 3 -4 60% 1 76.05 0.0
03 01:55 SW 11 16.09 Overcast OVC085 4 -4 9.9 3.6 56% 2 76.05 0.0
03 01:35 SW 7 16.09 Overcast OVC085 4 -4 56% 2 76.07 0.0
03 01:15 SW 11 16.09 Partly Cloudy SCT085 4 -4 56% 2 76.07 0.0
03 00:55 SW 11 16.09 Fair CLR 4 -4 56% 2 76.1 0.0
03 00:35 SW 13 16.09 Fair CLR 4 -4 56% 1 76.1 0.0
03 00:16 SW 13 16.09 Fair CLR 5 -4 53% 2 76.1 0.0
02 23:55 W 9 16.09 Fair CLR 4 -4 56% 2 76.12 0.0
02 23:35 W 13 16.09 Fair CLR 5 -4 53% 2 76.12 0.0
02 23:15 SW 9 16.09 Fair CLR 5 -5 49% 3 76.12 0.0
02 22:55 W 9 16.09 Fair CLR 4 -3 61% 2 76.12 0.0
02 22:35 W 7 16.09 Fair CLR 5 -3 57% 4 76.12 0.0
02 22:15 W 9 16.09 Fair CLR 6 -4 49% 4 76.12 0.0
02 21:56 W 9 16.09 Fair CLR 6 -5 46% 4 76.12 0.0
02 21:35 W 9 16.09 Fair CLR 6 -5 46% 4 76.12 0.0
02 21:15 W 11 16.09 Fair CLR 5 -4 53% 3 76.1 0.0
02 20:55 W 11 16.09 Fair CLR 6 -5 46% 4 76.1 0.0
02 20:35 NW 13 16.09 Fair CLR 8 -6 37% 6 76.1 0.0
02 20:15 W 15 16.09 A Few Clouds FEW085 9 -6 34% 7 76.07 0.0
02 19:55 W 9 16.09 A Few Clouds FEW085 10 -6 11.5 7.9 32% 9 76.07 0.0
02 19:36 W 11 16.09 A Few Clouds FEW075 10 -5 35% 9 76.1 0.0
02 19:15 W 19 16.09 Mostly Cloudy BKN075 10 -5 35% 8 76.1 0.0
02 18:55 SW 11 16.09 Partly Cloudy SCT085 10 -5 35% 9 76.1 0.0
02 18:35 W 15 16.09 Mostly Cloudy BKN085 10 -4 37% 8 76.12 0.0
02 18:15 W 13 16.09 Partly Cloudy SCT085 10 -5 35% 8 76.12 0.0
02 17:55 W 13 16.09 Mostly Cloudy BKN085 10 -4 37% 8 76.12 0.0
02 17:35 W 20 G 30 16.09 Mostly Cloudy SCT070 BKN085 11 -5 32% 76.12 0.0
02 17:16 W 13 16.09 Mostly Cloudy BKN080 BKN090 10 -4 37% 8 76.12 0.0
02 16:55 W 9 G 26 16.09 Mostly Cloudy FEW070 BKN080 10 -4 37% 9 76.15 0.0
02 16:35 SW 19 16.09 Overcast OVC080 10 -4 37% 8 76.15 0.0
02 16:15 W 15 16.09 Overcast BKN070 OVC080 10 -4 37% 8 76.17 0.0
02 15:55 W 17 G 30 16.09 Overcast BKN070 OVC080 9 -5 37% 7 76.2 0.0
02 15:35 W 15 16.09 Overcast SCT070 OVC080 10 -4 37% 8 76.23 0.0
02 15:15 W 17 G 30 16.09 Overcast SCT070 OVC080 10 -4 37% 8 76.23 0.0
02 14:56 NW 19 G 26 16.09 Mostly Cloudy SCT070 BKN080 11 -4 35% 76.25 0.0
02 14:35 NW 15 16.09 Mostly Cloudy BKN075 9 -4 40% 7 76.25 0.0
02 14:15 W 22 G 31 16.09 Mostly Cloudy BKN070 10 -3 40% 7 76.28 0.0
02 13:55 W 19 16.09 Mostly Cloudy BKN070 8 -5 9.5 1 40% 5 76.28 0.0
02 13:35 Vrbl 11 16.09 Mostly Cloudy BKN055 BKN070 9 -4 40% 8 76.28 0.0
02 13:15 NW 19 16.09 Mostly Cloudy BKN055 8 -6 37% 5 76.3 0.0
02 12:55 NW 19 16.09 Mostly Cloudy BKN055 8 -5 40% 5 76.33 0.0
02 12:36 NW 15 16.09 Mostly Cloudy BKN055 7 -5 43% 5 76.33 0.0
02 12:15 NW 11 16.09 Mostly Cloudy BKN055 7 -5 43% 5 76.33 0.0
02 11:55 NW 24 G 31 16.09 Partly Cloudy SCT049 8 -4 43% 5 76.35 0.0
02 11:35 W 17 G 30 16.09 Partly Cloudy SCT049 7 -3 49% 4 76.35 0.0
02 11:15 NW 19 16.09 Mostly Cloudy BKN049 BKN055 6 -4 49% 3 76.35 0.0
02 10:55 W 20 G 28 16.09 Mostly Cloudy SCT041 BKN049 6 -3 53% 3 76.35 0.0
02 10:35 NW 20 16.09 Mostly Cloudy FEW038 BKN047 6 -3 53% 3 76.38 0.0
02 10:16 NW 19 16.09 Overcast SCT036 OVC048 5 -4 53% 2 76.38 0.0
02 09:55 NW 15 16.09 Partly Cloudy SCT036 5 -3 57% 2 76.38 0.0
02 09:35 NW 15 16.09 Fair CLR 5 -3 57% 2 76.38 0.0
02 09:15 N 17 16.09 Fair CLR 4 -2 65% 1 76.38 0.0
02 08:55 NW 9 16.09 Fair CLR 4 -1 70% 2 76.38 0.0
02 08:35 NW 11 16.09 Fair CLR 3 -2 70% 0 76.4 0.0
02 08:15 NW 11 16.09 Fair CLR 2 -2 75% -1 76.4 0.0
02 07:56 NW 7 16.09 Fair CLR 1 -2 81% -1 76.4 0.0
02 07:35 NW 9 16.09 Fair CLR 0 -2 87% -3 76.38 0.0
02 07:15 NW 9 16.09 Fair CLR -1 -2 93% -4 76.38 0.0
02 06:55 NW 9 16.09 Fair CLR -2 -4 86% -5 76.38 0.0
02 06:35 NW 7 16.09 Fair CLR -2 -4 86% -4 76.35 0.0
02 06:15 NW 7 16.09 Fair CLR -1 -3 86% -3 76.35 0.0
02 05:55 NW 9 16.09 Fair CLR -1 -3 86% -4 76.35 0.0
02 05:36 NW 7 16.09 Fair CLR -1 -3 86% -3 76.35 0.0
02 05:15 NW 9 16.09 Fair CLR 0 -3 80% -3 76.33 0.0
02 04:55 NW 9 16.09 Fair CLR -1 -3 86% -4 76.33 0.0
02 04:35 NW 7 16.09 Fair CLR -1 -3 86% -3 76.33 0.0
02 04:15 W 7 16.09 Fair CLR 0 -3 80% -2 76.33 0.0
02 03:55 NW 6 16.09 Partly Cloudy SCT085 1 -3 75% 76.33 0.0
02 03:35 NW 7 16.09 Overcast OVC085 2 -3 70% 0 76.3 0.0
02 03:16 NW 9 16.09 Overcast OVC085 2 -3 70% -0 76.3 0.0
02 02:55 NW 7 16.09 Overcast OVC085 3 -3 65% 1 76.33 0.0
02 02:35 NW 7 16.09 Overcast OVC085 3 -3 65% 1 76.33 0.0
02 02:15 NW 7 16.09 Overcast OVC085 3 -3 65% 1 76.33 0.0
02 01:55 N 9 16.09 Overcast OVC085 3 -4 5.8 2.9 60% 1 76.33 0.0
02 01:35 N 7 16.09 Overcast OVC085 3 -3 65% 1 76.33 0.0
02 01:15 N 11 16.09 Overcast OVC085 3 -3 65% 0 76.33 0.0
02 00:56 NW 9 16.09 Overcast OVC085 3 -3 65% 1 76.3 0.0
02 00:35 NW 9 16.09 Overcast OVC085 4 -3 61% 2 76.3 0.0
02 00:15 NW 9 16.09 Overcast OVC085 4 -4 56% 2 76.3 0.0
01 23:55 NW 7 16.09 Overcast OVC085 4 -4 56% 2 76.3 0.0
01 23:35 NW 9 16.09 Overcast OVC085 4 -4 56% 2 76.3 0.0
01 23:15 NW 9 16.09 Overcast OVC085 4 -4 56% 2 76.28 0.0
01 22:55 NW 7 16.09 Overcast OVC085 4 -4 56% 2 76.28 0.0
01 22:36 N 11 16.09 Overcast FEW048 FEW060 OVC085 5 -4 53% 3 76.28 0.0
01 22:15 N 11 16.09 Overcast OVC085 5 -4 53% 3 76.28 0.0
01 21:55 NW 11 16.09 Overcast OVC075 5 -4 53% 3 76.28 0.0
01 21:35 NW 11 16.09 Overcast OVC075 5 -4 53% 3 76.25 0.0
01 21:15 NW 9 16.09 Overcast OVC075 5 -5 49% 3 76.25 0.0
01 20:55 N 11 16.09 Overcast FEW060 OVC075 5 -5 49% 3 76.23 0.0
01 20:35 NW 19 16.09 Overcast BKN060 OVC070 5 -4 53% 2 76.23 0.0
01 20:16 N 17 16.09 Overcast SCT060 OVC070 6 -4 49% 3 76.2 0.0
01 19:55 N 17 16.09 Overcast BKN060 OVC070 6 -4 7.8 5.8 49% 3 76.2 0.0
01 19:35 N 13 16.09 Overcast OVC060 6 -4 49% 4 76.17 0.0
01 19:15 N 15 16.09 Overcast OVC060 6 -4 49% 3 76.17 0.0
01 18:55 NW 15 16.09 Overcast OVC060 7 -4 46% 5 76.15 0.0
01 18:35 NW 17 16.09 Overcast BKN060 OVC070 7 -4 46% 4 76.15 0.0
01 18:15 NW 11 16.09 Overcast BKN060 OVC070 7 -4 46% 5 76.15 0.0
01 17:56 NW 13 16.09 Overcast BKN060 OVC080 7 -5 43% 5 76.12 0.0
01 17:35 NW 9 16.09 Overcast BKN060 OVC080 7 -4 46% 5 76.12 0.0
01 17:15 N 9 16.09 Overcast OVC060 7 -4 46% 5 76.12 0.0
01 16:55 N 17 16.09 Overcast FEW048 OVC060 8 -4 43% 6 76.12 0.0
01 16:35 W 15 16.09 Overcast OVC060 7 -4 46% 5 76.12 0.0
01 16:15 N 13 16.09 Overcast OVC050 7 -4 46% 5 76.12 0.0
01 15:55 N 7 16.09 Overcast BKN048 OVC060 7 -3 49% 6 76.12 0.0
01 15:36 NW 11 16.09 Overcast SCT050 BKN060 OVC070 7 -3 49% 5 76.12 0.0
01 15:15 NW 11 16.09 Overcast SCT049 BKN055 OVC070 7 -2 53% 5 76.12 0.0
01 14:55 Vrbl 11 16.09 Overcast FEW041 OVC049 7 -2 53% 5 76.1 0.0
01 14:35 N 15 16.09 Overcast FEW041 BKN049 OVC060 7 -2 53% 5 76.1 0.0
01 14:15 W 15 16.09 Overcast FEW041 OVC060 7 -2 53% 5 76.1 0.0
01 13:55 Vrbl 6 16.09 Overcast SCT039 OVC050 7 -2 7.6 2 53% 76.1 0.0
01 13:35 W 11 16.09 Overcast FEW037 BKN044 OVC050 7 -1 57% 5 76.1 0.0
01 13:16 NW 6 16.09 Overcast BKN039 OVC050 6 -2 57% 76.1 0.0
01 12:55 NW 11 16.09 Overcast BKN040 BKN050 OVC070 7 -2 53% 5 76.12 0.0
01 12:35 W 15 16.09 Overcast SCT036 BKN070 OVC080 7 -1 57% 5 76.12 0.0
01 12:15 N 13 16.09 Overcast SCT034 BKN065 OVC080 7 -1 57% 5 76.12 0.0
01 11:55 N 11 16.09 Overcast FEW043 BKN070 OVC075 6 -2 57% 4 76.12 0.0
01 11:35 NW 13 16.09 Mostly Cloudy SCT050 BKN070 BKN085 6 -1 61% 4 76.12 0.0
01 11:15 N 13 16.09 Mostly Cloudy FEW042 FEW050 BKN080 6 -1 61% 4 76.12 0.0
01 10:56 N 11 16.09 Mostly Cloudy BKN080 6 -1 61% 4 76.12 0.0
01 10:35 N 13 16.09 Overcast OVC080 5 -1 66% 2 76.12 0.0
01 10:15 N 15 16.09 Overcast OVC080 5 -1 66% 2 76.12 0.0
01 09:55 N 13 16.09 Overcast FEW045 SCT060 OVC080 4 0 75% 1 76.12 0.0
01 09:35 N 15 16.09 Overcast SCT070 OVC080 4 -1 70% 1 76.12 0.0
01 09:15 N 15 16.09 Overcast OVC080 3 -1 75% -0 76.12 0.0
01 08:55 N 15 16.09 Overcast OVC080 3 -1 75% -0 76.12 0.0
01 08:36 N 11 16.09 Overcast OVC080 3 -1 75% 0 76.1 0.0
01 08:15 N 11 16.09 Overcast OVC080 3 -1 75% 0 76.1 0.0
01 07:55 N 11 16.09 Overcast OVC080 2 -1 2.2 -0.6 81% -1 76.1 0.0
01 07:35 N 6 16.09 Overcast OVC080 1 -1 87% 76.07 0.0
01 07:15 N 9 16.09 Mostly Cloudy BKN080 0 -2 87% -3 76.07 0.0
01 06:55 N 7 16.09 A Few Clouds FEW080 0 -3 80% -2 76.07 0.0
01 06:35 N 6 16.09 Fair CLR 0 -3 80% 76.05 0.0
01 06:16 N 9 16.09 Fair CLR 0 -3 80% -3 76.05 0.0
01 05:55 N 6 16.09 Fair CLR 1 -3 75% 76.05 0.0
01 05:35 N 9 16.09 A Few Clouds FEW120 1 -2 81% -2 76.05 0.0
01 05:15 N 9 16.09 A Few Clouds FEW110 1 -3 75% -2 76.05 0.0
01 04:55 N 7 16.09 A Few Clouds FEW110 1 -3 75% -1 76.05 0.0
01 04:35 N 7 16.09 Fair CLR 1 -3 75% -1 76.05 0.0
01 04:15 N 7 16.09 Partly Cloudy SCT100 SCT120 1 -2 81% -1 76.07 0.0
01 03:56 NW 7 16.09 Mostly Cloudy BKN110 1 -2 81% -1 76.07 0.0
Date Time (edt) Wind (kph) Vis. (km) Weather Sky Cond. Air Dwpt Max. Min. Relative Humidity Wind Chill (°C) Heat Index (°C) altimeter (cm) sea level (mb) 1 hr 3 hr 6 hr
6 hour
Temperature (ºC) Pressure Precipitation (cm)